Year,Month,Day,Hour,Minute,Value (Times are PST for temperature in C)
2020,04,17,00,00,8.60
2020,04,17,00,01,8.60
2020,04,17,00,02,8.60
2020,04,17,00,03,8.60
2020,04,17,00,04,8.60
2020,04,17,00,05,8.60
2020,04,17,00,06,8.60
2020,04,17,00,07,8.60
2020,04,17,00,08,8.60
2020,04,17,00,09,8.60
2020,04,17,00,10,8.60
2020,04,17,00,11,8.60
2020,04,17,00,12,8.60
2020,04,17,00,13,8.60
2020,04,17,00,14,8.60
2020,04,17,00,15,8.60
2020,04,17,00,16,8.60
2020,04,17,00,17,8.60
2020,04,17,00,18,8.60
2020,04,17,00,19,8.60
2020,04,17,00,20,8.50
2020,04,17,00,21,8.50
2020,04,17,00,22,8.50
2020,04,17,00,23,8.50
2020,04,17,00,24,8.40
2020,04,17,00,25,8.40
2020,04,17,00,26,8.40
2020,04,17,00,27,8.40
2020,04,17,00,28,8.40
2020,04,17,00,29,8.40
2020,04,17,00,30,8.30
2020,04,17,00,31,8.30
2020,04,17,00,32,8.30
2020,04,17,00,33,8.30
2020,04,17,00,34,8.30
2020,04,17,00,35,8.30
2020,04,17,00,36,8.30
2020,04,17,00,37,8.20
2020,04,17,00,38,8.20
2020,04,17,00,39,8.20
2020,04,17,00,40,8.20
2020,04,17,00,41,8.20
2020,04,17,00,42,8.20
2020,04,17,00,43,8.20
2020,04,17,00,44,8.20
2020,04,17,00,45,8.20
2020,04,17,00,46,8.20
2020,04,17,00,47,8.10
2020,04,17,00,48,8.10
2020,04,17,00,49,8.10
2020,04,17,00,50,8.10
2020,04,17,00,51,8.00
2020,04,17,00,52,8.00
2020,04,17,00,53,8.00
2020,04,17,00,54,8.00
2020,04,17,00,55,8.00
2020,04,17,00,56,7.90
2020,04,17,00,57,7.90
2020,04,17,00,58,7.90
2020,04,17,00,59,7.90
2020,04,17,01,00,7.80
2020,04,17,01,01,7.80
2020,04,17,01,02,7.80
2020,04,17,01,03,7.80
2020,04,17,01,04,7.80
2020,04,17,01,05,7.70
2020,04,17,01,06,7.70
2020,04,17,01,07,7.70
2020,04,17,01,08,7.70
2020,04,17,01,09,7.70
2020,04,17,01,10,7.60
2020,04,17,01,11,7.60
2020,04,17,01,12,7.60
2020,04,17,01,13,7.60
2020,04,17,01,14,7.60
2020,04,17,01,15,7.60
2020,04,17,01,16,7.50
2020,04,17,01,17,7.50
2020,04,17,01,18,7.50
2020,04,17,01,19,7.50
2020,04,17,01,20,7.40
2020,04,17,01,21,7.40
2020,04,17,01,22,7.40
2020,04,17,01,23,7.40
2020,04,17,01,24,7.40
2020,04,17,01,25,7.30
2020,04,17,01,26,7.30
2020,04,17,01,27,7.30
2020,04,17,01,28,7.30
2020,04,17,01,29,7.30
2020,04,17,01,30,7.20
2020,04,17,01,31,7.20
2020,04,17,01,32,7.20
2020,04,17,01,33,7.20
2020,04,17,01,34,7.20
2020,04,17,01,35,7.10
2020,04,17,01,36,7.10
2020,04,17,01,37,7.10
2020,04,17,01,38,7.10
2020,04,17,01,39,7.10
2020,04,17,01,40,7.10
2020,04,17,01,41,7.10
2020,04,17,01,42,7.10
2020,04,17,01,43,7.10
2020,04,17,01,44,7.10
2020,04,17,01,45,7.10
2020,04,17,01,46,7.10
2020,04,17,01,47,7.10
2020,04,17,01,48,7.10
2020,04,17,01,49,7.10
2020,04,17,01,50,7.10
2020,04,17,01,51,7.10
2020,04,17,01,52,7.10
2020,04,17,01,53,7.00
2020,04,17,01,54,7.00
2020,04,17,01,55,7.00
2020,04,17,01,56,7.00
2020,04,17,01,57,7.00
2020,04,17,01,58,7.00
2020,04,17,01,59,7.00
2020,04,17,02,00,7.00
2020,04,17,02,01,7.00
2020,04,17,02,02,7.00
2020,04,17,02,03,7.00
2020,04,17,02,04,6.90
2020,04,17,02,05,6.90
2020,04,17,02,06,6.90
2020,04,17,02,07,6.90
2020,04,17,02,08,6.90
2020,04,17,02,09,6.90
2020,04,17,02,10,6.90
2020,04,17,02,11,6.80
2020,04,17,02,12,6.80
2020,04,17,02,13,6.80
2020,04,17,02,14,6.80
2020,04,17,02,15,6.80
2020,04,17,02,16,6.80
2020,04,17,02,17,6.80
2020,04,17,02,18,6.70
2020,04,17,02,19,6.70
2020,04,17,02,20,6.70
2020,04,17,02,21,6.70
2020,04,17,02,22,6.70
2020,04,17,02,23,6.60
2020,04,17,02,24,6.60
2020,04,17,02,25,6.60
2020,04,17,02,26,6.60
2020,04,17,02,27,6.50
2020,04,17,02,28,6.50
2020,04,17,02,29,6.50
2020,04,17,02,30,6.50
2020,04,17,02,31,6.40
2020,04,17,02,32,6.40
2020,04,17,02,33,6.40
2020,04,17,02,34,6.40
2020,04,17,02,35,6.40
2020,04,17,02,36,6.40
2020,04,17,02,37,6.40
2020,04,17,02,38,6.40
2020,04,17,02,39,6.30
2020,04,17,02,40,6.30
2020,04,17,02,41,6.30
2020,04,17,02,42,6.30
2020,04,17,02,43,6.30
2020,04,17,02,44,6.30
2020,04,17,02,45,6.20
2020,04,17,02,46,6.20
2020,04,17,02,47,6.20
2020,04,17,02,48,6.20
2020,04,17,02,49,6.20
2020,04,17,02,50,6.10
2020,04,17,02,51,6.10
2020,04,17,02,52,6.10
2020,04,17,02,53,6.10
2020,04,17,02,54,6.10
2020,04,17,02,55,6.10
2020,04,17,02,56,6.00
2020,04,17,02,57,6.00
2020,04,17,02,58,6.00
2020,04,17,02,59,5.90
2020,04,17,03,00,5.90
2020,04,17,03,01,5.90
2020,04,17,03,02,5.90
2020,04,17,03,03,5.80
2020,04,17,03,04,5.80
2020,04,17,03,05,5.80
2020,04,17,03,06,5.80
2020,04,17,03,07,5.80
2020,04,17,03,08,5.80
2020,04,17,03,09,5.70
2020,04,17,03,10,5.70
2020,04,17,03,11,5.70
2020,04,17,03,12,5.60
2020,04,17,03,13,5.60
2020,04,17,03,14,5.60
2020,04,17,03,15,5.60
2020,04,17,03,16,5.50
2020,04,17,03,17,5.60
2020,04,17,03,18,5.50
2020,04,17,03,19,5.50
2020,04,17,03,20,5.50
2020,04,17,03,21,5.50
2020,04,17,03,22,5.50
2020,04,17,03,23,5.40
2020,04,17,03,24,5.40
2020,04,17,03,25,5.40
2020,04,17,03,26,5.40
2020,04,17,03,27,5.40
2020,04,17,03,28,5.40
2020,04,17,03,29,5.40
2020,04,17,03,30,5.40
2020,04,17,03,31,5.40
2020,04,17,03,32,5.40
2020,04,17,03,33,5.30
2020,04,17,03,34,5.30
2020,04,17,03,35,5.30
2020,04,17,03,36,5.30
2020,04,17,03,37,5.30
2020,04,17,03,38,5.30
2020,04,17,03,39,5.30
2020,04,17,03,40,5.30
2020,04,17,03,41,5.30
2020,04,17,03,42,5.30
2020,04,17,03,43,5.20
2020,04,17,03,44,5.20
2020,04,17,03,45,5.20
2020,04,17,03,46,5.20
2020,04,17,03,47,5.20
2020,04,17,03,48,5.20
2020,04,17,03,49,5.10
2020,04,17,03,50,5.10
2020,04,17,03,51,5.10
2020,04,17,03,52,5.10
2020,04,17,03,53,5.10
2020,04,17,03,54,5.00
2020,04,17,03,55,5.00
2020,04,17,03,56,5.00
2020,04,17,03,57,5.00
2020,04,17,03,58,5.00
2020,04,17,03,59,5.00
2020,04,17,04,00,5.00
2020,04,17,04,01,5.00
2020,04,17,04,02,5.00
2020,04,17,04,03,5.00
2020,04,17,04,04,5.00
2020,04,17,04,05,5.00
2020,04,17,04,06,5.00
2020,04,17,04,07,5.00
2020,04,17,04,08,5.00
2020,04,17,04,09,5.00
2020,04,17,04,10,5.00
2020,04,17,04,11,5.00
2020,04,17,04,12,5.00
2020,04,17,04,13,5.00
2020,04,17,04,14,4.90
2020,04,17,04,15,4.90
2020,04,17,04,16,4.90
2020,04,17,04,17,4.90
2020,04,17,04,18,4.90
2020,04,17,04,19,4.90
2020,04,17,04,20,4.80
2020,04,17,04,21,4.80
2020,04,17,04,22,4.80
2020,04,17,04,23,4.80
2020,04,17,04,24,4.70
2020,04,17,04,25,4.70
2020,04,17,04,26,4.70
2020,04,17,04,27,4.70
2020,04,17,04,28,4.70
2020,04,17,04,29,4.70
2020,04,17,04,30,4.70
2020,04,17,04,31,4.60
2020,04,17,04,32,4.60
2020,04,17,04,33,4.60
2020,04,17,04,34,4.60
2020,04,17,04,35,4.60
2020,04,17,04,36,4.60
2020,04,17,04,37,4.60
2020,04,17,04,38,4.50
2020,04,17,04,39,4.50
2020,04,17,04,40,4.50
2020,04,17,04,41,4.50
2020,04,17,04,42,4.40
2020,04,17,04,43,4.40
2020,04,17,04,44,4.40
2020,04,17,04,45,4.40
2020,04,17,04,46,4.40
2020,04,17,04,47,4.30
2020,04,17,04,48,4.30
2020,04,17,04,49,4.30
2020,04,17,04,50,4.30
2020,04,17,04,51,4.30
2020,04,17,04,52,4.30
2020,04,17,04,53,4.30
2020,04,17,04,54,4.30
2020,04,17,04,55,4.30
2020,04,17,04,56,4.20
2020,04,17,04,57,4.20
2020,04,17,04,58,4.20
2020,04,17,04,59,4.20
2020,04,17,05,00,4.20
2020,04,17,05,01,4.20
2020,04,17,05,02,4.20
2020,04,17,05,03,4.20
2020,04,17,05,04,4.20
2020,04,17,05,05,4.20
2020,04,17,05,06,4.20
2020,04,17,05,07,4.20
2020,04,17,05,08,4.20
2020,04,17,05,09,4.20
2020,04,17,05,10,4.20
2020,04,17,05,11,4.10
2020,04,17,05,12,4.10
2020,04,17,05,13,4.10
2020,04,17,05,14,4.10
2020,04,17,05,15,4.10
2020,04,17,05,16,4.10
2020,04,17,05,17,4.10
2020,04,17,05,18,4.10
2020,04,17,05,19,4.00
2020,04,17,05,20,4.00
2020,04,17,05,21,4.00
2020,04,17,05,22,4.00
2020,04,17,05,23,4.00
2020,04,17,05,24,3.90
2020,04,17,05,25,3.90
2020,04,17,05,26,3.90
2020,04,17,05,27,3.90
2020,04,17,05,28,3.90
2020,04,17,05,29,3.90
2020,04,17,05,30,3.90
2020,04,17,05,31,3.90
2020,04,17,05,32,3.80
2020,04,17,05,33,3.90
2020,04,17,05,34,3.80
2020,04,17,05,35,3.80
2020,04,17,05,36,3.80
2020,04,17,05,37,3.80
2020,04,17,05,38,3.80
2020,04,17,05,39,3.80
2020,04,17,05,40,3.80
2020,04,17,05,41,3.80
2020,04,17,05,42,3.80
2020,04,17,05,43,3.80
2020,04,17,05,44,3.80
2020,04,17,05,45,3.80
2020,04,17,05,46,3.80
2020,04,17,05,47,3.80
2020,04,17,05,48,3.80
2020,04,17,05,49,3.80
2020,04,17,05,50,3.80
2020,04,17,05,51,3.90
2020,04,17,05,52,3.90
2020,04,17,05,53,3.90
2020,04,17,05,54,3.90
2020,04,17,05,55,3.90
2020,04,17,05,56,3.90
2020,04,17,05,57,3.90
2020,04,17,05,58,4.00
2020,04,17,05,59,4.00
2020,04,17,06,00,4.00
2020,04,17,06,01,4.00
2020,04,17,06,02,4.00
2020,04,17,06,03,3.90
2020,04,17,06,04,4.00
2020,04,17,06,05,4.00
2020,04,17,06,06,4.00
2020,04,17,06,07,4.00
2020,04,17,06,08,4.00
2020,04,17,06,09,3.90
2020,04,17,06,10,3.90
2020,04,17,06,11,3.90
2020,04,17,06,12,3.90
2020,04,17,06,13,3.90
2020,04,17,06,14,3.90
2020,04,17,06,15,3.90
2020,04,17,06,16,3.90
2020,04,17,06,17,3.90
2020,04,17,06,18,3.90
2020,04,17,06,19,3.90
2020,04,17,06,20,3.90
2020,04,17,06,21,3.80
2020,04,17,06,22,3.80
2020,04,17,06,23,3.80
2020,04,17,06,24,3.80
2020,04,17,06,25,3.80
2020,04,17,06,26,3.80
2020,04,17,06,27,3.80
2020,04,17,06,28,3.80
2020,04,17,06,29,3.80
2020,04,17,06,30,3.80
2020,04,17,06,31,3.80
2020,04,17,06,32,3.80
2020,04,17,06,33,3.80
2020,04,17,06,34,3.80
2020,04,17,06,35,3.80
2020,04,17,06,36,3.80
2020,04,17,06,37,3.80
2020,04,17,06,38,3.80
2020,04,17,06,39,3.80
2020,04,17,06,40,3.80
2020,04,17,06,41,3.80
2020,04,17,06,42,3.80
2020,04,17,06,43,3.80
2020,04,17,06,44,3.80
2020,04,17,06,45,3.80
2020,04,17,06,46,3.80
2020,04,17,06,47,3.80
2020,04,17,06,48,3.80
2020,04,17,06,49,3.80
2020,04,17,06,50,3.80
2020,04,17,06,51,3.80
2020,04,17,06,52,3.80
2020,04,17,06,53,3.80
2020,04,17,06,54,3.80
2020,04,17,06,55,3.80
2020,04,17,06,56,3.80
2020,04,17,06,57,3.80
2020,04,17,06,58,3.80
2020,04,17,06,59,3.80
2020,04,17,07,00,3.80
2020,04,17,07,01,3.80
2020,04,17,07,02,3.80
2020,04,17,07,03,3.80
2020,04,17,07,04,3.70
2020,04,17,07,05,3.70
2020,04,17,07,06,3.70
2020,04,17,07,07,3.80
2020,04,17,07,08,3.80
2020,04,17,07,09,3.80
2020,04,17,07,10,3.80
2020,04,17,07,11,3.80
2020,04,17,07,12,3.80
2020,04,17,07,13,3.80
2020,04,17,07,14,3.80
2020,04,17,07,15,3.80
2020,04,17,07,16,3.80
2020,04,17,07,17,3.80
2020,04,17,07,18,3.80
2020,04,17,07,19,3.80
2020,04,17,07,20,3.80
2020,04,17,07,21,3.80
2020,04,17,07,22,3.90
2020,04,17,07,23,3.90
2020,04,17,07,24,3.90
2020,04,17,07,25,3.90
2020,04,17,07,26,4.00
2020,04,17,07,27,4.00
2020,04,17,07,28,4.00
2020,04,17,07,29,4.10
2020,04,17,07,30,4.10
2020,04,17,07,31,4.20
2020,04,17,07,32,4.20
2020,04,17,07,33,4.20
2020,04,17,07,34,4.20
2020,04,17,07,35,4.30
2020,04,17,07,36,4.30
2020,04,17,07,37,4.40
2020,04,17,07,38,4.40
2020,04,17,07,39,4.50
2020,04,17,07,40,4.50
2020,04,17,07,41,4.60
2020,04,17,07,42,4.60
2020,04,17,07,43,4.60
2020,04,17,07,44,4.70
2020,04,17,07,45,4.70
2020,04,17,07,46,4.80
2020,04,17,07,47,4.80
2020,04,17,07,48,4.80
2020,04,17,07,49,4.90
2020,04,17,07,50,4.90
2020,04,17,07,51,4.90
2020,04,17,07,52,5.00
2020,04,17,07,53,5.00
2020,04,17,07,54,5.10
2020,04,17,07,55,5.10
2020,04,17,07,56,5.20
2020,04,17,07,57,5.30
2020,04,17,07,58,5.40
2020,04,17,07,59,5.40
2020,04,17,08,00,5.50
2020,04,17,08,01,5.60
2020,04,17,08,02,5.60
2020,04,17,08,03,5.70
2020,04,17,08,04,5.80
2020,04,17,08,05,5.90
2020,04,17,08,06,5.90
2020,04,17,08,07,6.00
2020,04,17,08,08,6.10
2020,04,17,08,09,6.20
2020,04,17,08,10,6.30
2020,04,17,08,11,6.40
2020,04,17,08,12,6.40
2020,04,17,08,13,6.50
2020,04,17,08,14,6.60
2020,04,17,08,15,6.70
2020,04,17,08,16,6.80
2020,04,17,08,17,6.80
2020,04,17,08,18,7.00
2020,04,17,08,19,7.10
2020,04,17,08,20,7.20
2020,04,17,08,21,7.30
2020,04,17,08,22,7.40
2020,04,17,08,23,7.50
2020,04,17,08,24,7.60
2020,04,17,08,25,7.70
2020,04,17,08,26,7.80
2020,04,17,08,27,8.00
2020,04,17,08,28,8.10
2020,04,17,08,29,8.20
2020,04,17,08,30,8.30
2020,04,17,08,31,8.50
2020,04,17,08,32,8.60
2020,04,17,08,33,8.80
2020,04,17,08,34,8.90
2020,04,17,08,35,9.10
2020,04,17,08,36,9.20
2020,04,17,08,37,9.40
2020,04,17,08,38,9.50
2020,04,17,08,39,9.60
2020,04,17,08,40,9.70
2020,04,17,08,41,9.80
2020,04,17,08,42,9.80
2020,04,17,08,43,9.90
2020,04,17,08,44,9.90
2020,04,17,08,45,10.00
2020,04,17,08,46,10.00
2020,04,17,08,47,10.10
2020,04,17,08,48,10.20
2020,04,17,08,49,10.30
2020,04,17,08,50,10.30
2020,04,17,08,51,10.40
2020,04,17,08,52,10.50
2020,04,17,08,53,10.50
2020,04,17,08,54,10.60
2020,04,17,08,55,10.60
2020,04,17,08,56,10.60
2020,04,17,08,57,10.60
2020,04,17,08,58,10.60
2020,04,17,08,59,10.60
2020,04,17,09,00,10.60
2020,04,17,09,01,10.60
2020,04,17,09,02,10.60
2020,04,17,09,03,10.70
2020,04,17,09,04,10.70
2020,04,17,09,05,10.70
2020,04,17,09,06,10.70
2020,04,17,09,07,10.70
2020,04,17,09,08,10.70
2020,04,17,09,09,10.70
2020,04,17,09,10,10.70
2020,04,17,09,11,10.70
2020,04,17,09,12,10.80
2020,04,17,09,13,10.80
2020,04,17,09,14,10.80
2020,04,17,09,15,10.80
2020,04,17,09,16,10.90
2020,04,17,09,17,10.90
2020,04,17,09,18,10.90
2020,04,17,09,19,10.90
2020,04,17,09,20,11.00
2020,04,17,09,21,11.00
2020,04,17,09,22,11.00
2020,04,17,09,23,11.10
2020,04,17,09,24,11.10
2020,04,17,09,25,11.10
2020,04,17,09,26,11.20
2020,04,17,09,27,11.20
2020,04,17,09,28,11.20
2020,04,17,09,29,11.30
2020,04,17,09,30,11.30
2020,04,17,09,31,11.30
2020,04,17,09,32,11.30
2020,04,17,09,33,11.30
2020,04,17,09,34,11.30
2020,04,17,09,35,11.40
2020,04,17,09,36,11.40
2020,04,17,09,37,11.40
2020,04,17,09,38,11.40
2020,04,17,09,39,11.40
2020,04,17,09,40,11.50
2020,04,17,09,41,11.50
2020,04,17,09,42,11.60
2020,04,17,09,43,11.60
2020,04,17,09,44,11.70
2020,04,17,09,45,11.70
2020,04,17,09,46,11.70
2020,04,17,09,47,11.70
2020,04,17,09,48,11.80
2020,04,17,09,49,11.80
2020,04,17,09,50,11.90
2020,04,17,09,51,11.90
2020,04,17,09,52,12.00
2020,04,17,09,53,12.00
2020,04,17,09,54,12.10
2020,04,17,09,55,12.10
2020,04,17,09,56,12.10
2020,04,17,09,57,12.10
2020,04,17,09,58,12.10
2020,04,17,09,59,12.10
2020,04,17,10,00,12.20
2020,04,17,10,01,12.10
2020,04,17,10,02,12.20
2020,04,17,10,03,12.20
2020,04,17,10,04,12.20
2020,04,17,10,05,12.30
2020,04,17,10,06,12.30
2020,04,17,10,07,12.40
2020,04,17,10,08,12.40
2020,04,17,10,09,12.50
2020,04,17,10,10,12.60
2020,04,17,10,11,12.60
2020,04,17,10,12,12.70
2020,04,17,10,13,12.70
2020,04,17,10,14,12.80
2020,04,17,10,15,12.80
2020,04,17,10,16,12.80
2020,04,17,10,17,12.90
2020,04,17,10,18,12.90
2020,04,17,10,19,13.10
2020,04,17,10,20,13.10
2020,04,17,10,21,13.20
2020,04,17,10,22,13.30
2020,04,17,10,23,13.30
2020,04,17,10,24,13.40
2020,04,17,10,25,13.40
2020,04,17,10,26,13.40
2020,04,17,10,27,13.40
2020,04,17,10,28,13.40
2020,04,17,10,29,13.40
2020,04,17,10,30,13.40
2020,04,17,10,31,13.40
2020,04,17,10,32,13.40
2020,04,17,10,33,13.40
2020,04,17,10,34,13.40
2020,04,17,10,35,13.40
2020,04,17,10,36,13.40
2020,04,17,10,37,13.50
2020,04,17,10,38,13.50
2020,04,17,10,39,13.60
2020,04,17,10,40,13.70
2020,04,17,10,41,13.70
2020,04,17,10,42,13.80
2020,04,17,10,43,13.80
2020,04,17,10,44,13.90
2020,04,17,10,45,13.90
2020,04,17,10,46,13.80
2020,04,17,10,47,13.80
2020,04,17,10,48,13.80
2020,04,17,10,49,13.90
2020,04,17,10,50,13.90
2020,04,17,10,51,13.90
2020,04,17,10,52,14.00
2020,04,17,10,53,14.00
2020,04,17,10,54,14.00
2020,04,17,10,55,14.10
2020,04,17,10,56,14.00
2020,04,17,10,57,14.00
2020,04,17,10,58,14.00
2020,04,17,10,59,14.00
2020,04,17,11,00,14.00
2020,04,17,11,01,13.90
2020,04,17,11,02,13.90
2020,04,17,11,03,13.90
2020,04,17,11,04,13.80
2020,04,17,11,05,13.80
2020,04,17,11,06,13.80
2020,04,17,11,07,13.70
2020,04,17,11,08,13.70
2020,04,17,11,09,13.70
2020,04,17,11,10,13.70
2020,04,17,11,11,13.70
2020,04,17,11,12,13.70
2020,04,17,11,13,13.60
2020,04,17,11,14,13.60
2020,04,17,11,15,13.60
2020,04,17,11,16,13.60
2020,04,17,11,17,13.60
2020,04,17,11,18,13.60
2020,04,17,11,19,13.60
2020,04,17,11,20,13.60
2020,04,17,11,21,13.70
2020,04,17,11,22,13.70
2020,04,17,11,23,13.70
2020,04,17,11,24,13.70
2020,04,17,11,25,13.80
2020,04,17,11,26,13.80
2020,04,17,11,27,13.80
2020,04,17,11,28,13.70
2020,04,17,11,29,13.70
2020,04,17,11,30,13.70
2020,04,17,11,31,13.60
2020,04,17,11,32,13.60
2020,04,17,11,33,13.50
2020,04,17,11,34,13.50
2020,04,17,11,35,13.40
2020,04,17,11,36,13.40
2020,04,17,11,37,13.40
2020,04,17,11,38,13.30
2020,04,17,11,39,13.30
2020,04,17,11,40,13.30
2020,04,17,11,41,13.30
2020,04,17,11,42,13.20
2020,04,17,11,43,13.20
2020,04,17,11,44,13.20
2020,04,17,11,45,13.20
2020,04,17,11,46,13.20
2020,04,17,11,47,13.20
2020,04,17,11,48,13.20
2020,04,17,11,49,13.20
2020,04,17,11,50,13.10
2020,04,17,11,51,13.10
2020,04,17,11,52,13.10
2020,04,17,11,53,13.10
2020,04,17,11,54,13.10
2020,04,17,11,55,13.00
2020,04,17,11,56,12.90
2020,04,17,11,57,12.90
2020,04,17,11,58,12.90
2020,04,17,11,59,12.90
2020,04,17,12,00,12.80
2020,04,17,12,01,12.80
2020,04,17,12,02,12.80
2020,04,17,12,03,12.80
2020,04,17,12,04,12.90
2020,04,17,12,05,12.90
2020,04,17,12,06,12.90
2020,04,17,12,07,12.90
2020,04,17,12,08,12.90
2020,04,17,12,09,12.90
2020,04,17,12,10,12.90
2020,04,17,12,11,13.00
2020,04,17,12,12,13.00
2020,04,17,12,13,13.00
2020,04,17,12,14,13.10
2020,04,17,12,15,13.10
2020,04,17,12,16,13.10
2020,04,17,12,17,13.20
2020,04,17,12,18,13.20
2020,04,17,12,19,13.30
2020,04,17,12,20,13.30
2020,04,17,12,21,13.30
2020,04,17,12,22,13.40
2020,04,17,12,23,13.40
2020,04,17,12,24,13.40
2020,04,17,12,25,13.40
2020,04,17,12,26,13.40
2020,04,17,12,27,13.30
2020,04,17,12,28,13.30
2020,04,17,12,29,13.30
2020,04,17,12,30,13.30
2020,04,17,12,31,13.30
2020,04,17,12,32,13.30
2020,04,17,12,33,13.30
2020,04,17,12,34,13.30
2020,04,17,12,35,13.30
2020,04,17,12,36,13.30
2020,04,17,12,37,13.30
2020,04,17,12,38,13.40
2020,04,17,12,39,13.40
2020,04,17,12,40,13.40
2020,04,17,12,41,13.50
2020,04,17,12,42,13.50
2020,04,17,12,43,13.60
2020,04,17,12,44,13.60
2020,04,17,12,45,13.70
2020,04,17,12,46,13.70
2020,04,17,12,47,13.80
2020,04,17,12,48,13.80
2020,04,17,12,49,13.80
2020,04,17,12,50,13.80
2020,04,17,12,51,13.90
2020,04,17,12,52,13.90
2020,04,17,12,53,14.00
2020,04,17,12,54,14.00
2020,04,17,12,55,14.10
2020,04,17,12,56,14.10
2020,04,17,12,57,14.20
2020,04,17,12,58,14.30
2020,04,17,12,59,14.30
2020,04,17,13,00,14.40
2020,04,17,13,01,14.40
2020,04,17,13,02,14.40
2020,04,17,13,03,14.50
2020,04,17,13,04,14.50
2020,04,17,13,05,14.50
2020,04,17,13,06,14.50
2020,04,17,13,07,14.60
2020,04,17,13,08,14.60
2020,04,17,13,09,14.70
2020,04,17,13,10,14.70
2020,04,17,13,11,14.80
2020,04,17,13,12,14.80
2020,04,17,13,13,14.80
2020,04,17,13,14,14.80
2020,04,17,13,15,14.70
2020,04,17,13,16,14.70
2020,04,17,13,17,14.70
2020,04,17,13,18,14.60
2020,04,17,13,19,14.60
2020,04,17,13,20,14.50
2020,04,17,13,21,14.50
2020,04,17,13,22,14.50
2020,04,17,13,23,14.50
2020,04,17,13,24,14.50
2020,04,17,13,25,14.50
2020,04,17,13,26,14.40
2020,04,17,13,27,14.40
2020,04,17,13,28,14.40
2020,04,17,13,29,14.40
2020,04,17,13,30,14.40
2020,04,17,13,31,14.30
2020,04,17,13,32,14.30
2020,04,17,13,33,14.30
2020,04,17,13,34,14.30
2020,04,17,13,35,14.20
2020,04,17,13,36,14.10
2020,04,17,13,37,14.10
2020,04,17,13,38,14.00
2020,04,17,13,39,14.00
2020,04,17,13,40,14.00
2020,04,17,13,41,13.90
2020,04,17,13,42,13.90
2020,04,17,13,43,13.80
2020,04,17,13,44,13.80
2020,04,17,13,45,13.80
2020,04,17,13,46,13.70
2020,04,17,13,47,13.70
2020,04,17,13,48,13.70
2020,04,17,13,49,13.60
2020,04,17,13,50,13.60
2020,04,17,13,51,13.60
2020,04,17,13,52,13.60
2020,04,17,13,53,13.50
2020,04,17,13,54,13.50
2020,04,17,13,55,13.50
2020,04,17,13,56,13.50
2020,04,17,13,57,13.50
2020,04,17,13,58,13.40
2020,04,17,13,59,13.50
2020,04,17,14,00,13.40
2020,04,17,14,01,13.40
2020,04,17,14,02,13.40
2020,04,17,14,03,13.40
2020,04,17,14,04,13.40
2020,04,17,14,05,13.30
2020,04,17,14,06,13.30
2020,04,17,14,07,13.30
2020,04,17,14,08,13.20
2020,04,17,14,09,13.10
2020,04,17,14,10,13.00
2020,04,17,14,11,12.90
2020,04,17,14,12,12.90
2020,04,17,14,13,12.80
2020,04,17,14,14,12.80
2020,04,17,14,15,12.80
2020,04,17,14,16,12.80
2020,04,17,14,17,12.80
2020,04,17,14,18,12.80
2020,04,17,14,19,12.80
2020,04,17,14,20,12.80
2020,04,17,14,21,12.80
2020,04,17,14,22,12.80
2020,04,17,14,23,12.70
2020,04,17,14,24,12.70
2020,04,17,14,25,12.70
2020,04,17,14,26,12.80
2020,04,17,14,27,12.70
2020,04,17,14,28,12.70
2020,04,17,14,29,12.70
2020,04,17,14,30,12.60
2020,04,17,14,31,12.60
2020,04,17,14,32,12.50
2020,04,17,14,33,12.40
2020,04,17,14,34,12.40
2020,04,17,14,35,12.40
2020,04,17,14,36,12.30
2020,04,17,14,37,12.30
2020,04,17,14,38,12.20
2020,04,17,14,39,12.20
2020,04,17,14,40,12.10
2020,04,17,14,41,12.10
2020,04,17,14,42,12.10
2020,04,17,14,43,12.10
2020,04,17,14,44,12.10
2020,04,17,14,45,12.10
2020,04,17,14,46,12.10
2020,04,17,14,47,12.20
2020,04,17,14,48,12.20
2020,04,17,14,49,12.20
2020,04,17,14,50,12.30
2020,04,17,14,51,12.30
2020,04,17,14,52,12.20
2020,04,17,14,53,12.30
2020,04,17,14,54,12.30
2020,04,17,14,55,12.30
2020,04,17,14,56,12.30
2020,04,17,14,57,12.30
2020,04,17,14,58,12.30
2020,04,17,14,59,12.30
2020,04,17,15,00,12.40
2020,04,17,15,01,12.50
2020,04,17,15,02,12.50
2020,04,17,15,03,12.60
2020,04,17,15,04,12.60
2020,04,17,15,05,12.70
2020,04,17,15,06,12.80
2020,04,17,15,07,12.90
2020,04,17,15,08,13.00
2020,04,17,15,09,13.10
2020,04,17,15,10,13.30
2020,04,17,15,11,13.40
2020,04,17,15,12,13.50
2020,04,17,15,13,13.60
2020,04,17,15,14,13.70
2020,04,17,15,15,13.80
2020,04,17,15,16,13.80
2020,04,17,15,17,13.70
2020,04,17,15,18,13.70
2020,04,17,15,19,13.60
2020,04,17,15,20,13.50
2020,04,17,15,21,13.40
2020,04,17,15,22,13.40
2020,04,17,15,23,13.30
2020,04,17,15,24,13.30
2020,04,17,15,25,13.20
2020,04,17,15,26,13.30
2020,04,17,15,27,13.20
2020,04,17,15,28,13.20
2020,04,17,15,29,13.20
2020,04,17,15,30,13.20
2020,04,17,15,31,13.10
2020,04,17,15,32,13.10
2020,04,17,15,33,13.10
2020,04,17,15,34,13.10
2020,04,17,15,35,13.20
2020,04,17,15,36,13.30
2020,04,17,15,37,13.40
2020,04,17,15,38,13.50
2020,04,17,15,39,13.70
2020,04,17,15,40,13.80
2020,04,17,15,41,13.90
2020,04,17,15,42,14.00
2020,04,17,15,43,14.10
2020,04,17,15,44,14.20
2020,04,17,15,45,14.30
2020,04,17,15,46,14.30
2020,04,17,15,47,14.30
2020,04,17,15,48,14.40
2020,04,17,15,49,14.40
2020,04,17,15,50,14.50
2020,04,17,15,51,14.50
2020,04,17,15,52,14.50
2020,04,17,15,53,14.60
2020,04,17,15,54,14.60
2020,04,17,15,55,14.60
2020,04,17,15,56,14.70
2020,04,17,15,57,14.70
2020,04,17,15,58,14.80
2020,04,17,15,59,14.80
2020,04,17,16,00,14.90
2020,04,17,16,01,14.90
2020,04,17,16,02,15.00
2020,04,17,16,03,15.00
2020,04,17,16,04,15.00
2020,04,17,16,05,15.10
2020,04,17,16,06,15.10
2020,04,17,16,07,15.10
2020,04,17,16,08,15.20
2020,04,17,16,09,15.20
2020,04,17,16,10,15.20
2020,04,17,16,11,15.30
2020,04,17,16,12,15.40
2020,04,17,16,13,15.40
2020,04,17,16,14,15.50
2020,04,17,16,15,15.50
2020,04,17,16,16,15.50
2020,04,17,16,17,15.50
2020,04,17,16,18,15.60
2020,04,17,16,19,15.60
2020,04,17,16,20,15.60
2020,04,17,16,21,15.60
2020,04,17,16,22,15.50
2020,04,17,16,23,15.50
2020,04,17,16,24,15.40
2020,04,17,16,25,15.30
2020,04,17,16,26,15.20
2020,04,17,16,27,15.00
2020,04,17,16,28,14.90
2020,04,17,16,29,14.70
2020,04,17,16,30,14.50
2020,04,17,16,31,14.30
2020,04,17,16,32,14.10
2020,04,17,16,33,13.90
2020,04,17,16,34,13.80
2020,04,17,16,35,13.60
2020,04,17,16,36,13.40
2020,04,17,16,37,13.30
2020,04,17,16,38,13.30
2020,04,17,16,39,13.20
2020,04,17,16,40,13.20
2020,04,17,16,41,13.10
2020,04,17,16,42,13.10
2020,04,17,16,43,13.10
2020,04,17,16,44,13.10
2020,04,17,16,45,13.10
2020,04,17,16,46,13.10
2020,04,17,16,47,13.10
2020,04,17,16,48,13.10
2020,04,17,16,49,13.10
2020,04,17,16,50,13.10
2020,04,17,16,51,13.10
2020,04,17,16,52,13.10
2020,04,17,16,53,13.20
2020,04,17,16,54,13.20
2020,04,17,16,55,13.20
2020,04,17,16,56,13.30
2020,04,17,16,57,13.30
2020,04,17,16,58,13.40
2020,04,17,16,59,13.50
2020,04,17,17,00,13.60
2020,04,17,17,01,13.70
2020,04,17,17,02,13.70
2020,04,17,17,03,13.80
2020,04,17,17,04,13.90
2020,04,17,17,05,13.90
2020,04,17,17,06,14.00
2020,04,17,17,07,14.10
2020,04,17,17,08,14.10
2020,04,17,17,09,14.20
2020,04,17,17,10,14.20
2020,04,17,17,11,14.30
2020,04,17,17,12,14.30
2020,04,17,17,13,14.40
2020,04,17,17,14,14.40
2020,04,17,17,15,14.40
2020,04,17,17,16,14.50
2020,04,17,17,17,14.60
2020,04,17,17,18,14.60
2020,04,17,17,19,14.60
2020,04,17,17,20,14.70
2020,04,17,17,21,14.70
2020,04,17,17,22,14.80
2020,04,17,17,23,14.80
2020,04,17,17,24,14.90
2020,04,17,17,25,14.90
2020,04,17,17,26,15.00
2020,04,17,17,27,15.00
2020,04,17,17,28,15.10
2020,04,17,17,29,15.10
2020,04,17,17,30,15.20
2020,04,17,17,31,15.20
2020,04,17,17,32,15.30
2020,04,17,17,33,15.30
2020,04,17,17,34,15.30
2020,04,17,17,35,15.30
2020,04,17,17,36,15.40
2020,04,17,17,37,15.40
2020,04,17,17,38,15.50
2020,04,17,17,39,15.50
2020,04,17,17,40,15.50
2020,04,17,17,41,15.50
2020,04,17,17,42,15.50